[[{"header":{"parameterUnit":"m.s-1","parameterCategory":2,"la1":30.2991,"la2":30.254,"lo1":-89.0895,"lo2":-89.0444,"dy":0.0017,"dx":0.0017,"nx":28,"ny":28,"refTime":"2023-11-16T09:00:00:Z","depth":"0","parameterNumber":2,"parameterNumberName":"U-component_of_CURRENTS"},"data":[0,0,0,0,0,0,0,0,0,0,0,0,0,0,0,0,0,0,0,0,0,0,0,0,0,0,0,0,0,0,0,0,0,0,0,0,0,0,0,0,0,0,0,0,0,0,0,0,0,0,0,0,0,0,0,0,0,0,-0.2676,-0.2676,0,-0.2673,-0.2673,-0.2672,-0.2568,-0.2565,-0.2563,-0.2561,-0.2494,-0.2494,-0.2494,0,0,0,0,0,0,0,0,0,0,0,0,0,-0.255,-0.2552,-0.2676,-0.2676,-0.2677,-0.2673,-0.2673,-0.2672,-0.2568,-0.2565,-0.2563,-0.256,-0.2494,-0.2494,-0.2494,0,0,0,0,0,0,0,0,0,0,0,0,0,-0.2577,-0.2553,-0.2676,-0.2628,-0.2624,-0.2673,-0.2673,-0.2672,-0.2569,-0.2565,-0.2562,-0.2559,-0.2493,-0.2494,-0.2494,-0.2566,0,0,-0.2496,-0.2496,0,0,0,0,0,0,0,0,-0.2576,-0.2581,-0.2635,-0.2631,-0.2627,-0.2621,-0.2604,-0.2635,-0.257,-0.2585,-0.2561,-0.2557,-0.2536,-0.2533,-0.2534,-0.2563,-0.256,-0.2496,-0.2496,-0.2497,-0.2497,0,0,0,0,0,0,0,-0.2574,-0.2581,-0.267,-0.2635,-0.2631,-0.2593,-0.2592,-0.2609,-0.2575,-0.2583,-0.2577,-0.2585,-0.2532,-0.2534,-0.2532,-0.2559,-0.2496,-0.2496,-0.2497,-0.2497,-0.2601,-0.2604,0,0,0,0,0,0,-0.2591,-0.258,-0.267,-0.267,-0.2598,-0.2598,-0.2598,-0.2623,-0.2576,-0.2567,-0.2588,-0.258,-0.2535,-0.2531,-0.2529,-0.2585,-0.2497,-0.2497,-0.2497,-0.2599,-0.2602,-0.2604,0,0,0,0,0,0,-0.2588,-0.26,-0.267,-0.2627,-0.2634,-0.2605,-0.2633,-0.2625,-0.2623,-0.2581,-0.2569,-0.2595,-0.2532,-0.2528,-0.2546,-0.2582,-0.2497,-0.2498,-0.2596,-0.26,-0.2603,-0.2714,0,0,0,0,0,0,-0.2585,-0.2599,-0.2623,-0.2629,-0.2637,-0.2716,-0.2637,-0.2627,-0.2636,-0.2626,-0.2585,-0.2574,-0.2529,-0.2546,-0.2547,-0.2581,-0.2498,-0.2593,-0.2598,-0.2602,-0.2707,-0.2721,-0.2732,0,0,0,0,0,-0.2581,-0.2633,-0.2625,-0.2636,-0.2672,-0.2719,-0.2721,-0.2683,-0.264,-0.2663,-0.2624,-0.2575,-0.2575,-0.2549,-0.2549,-0.2584,-0.259,-0.2596,-0.2602,-0.2701,-0.2718,-0.2732,0,0,0,0,0,0,-0.2601,-0.2628,-0.2619,-0.2679,-0.2705,-0.2703,-0.2721,-0.2703,-0.2694,-0.267,-0.2616,-0.2607,-0.2635,-0.2608,-0.258,-0.2629,-0.2573,-0.2579,-0.2648,-0.2664,-0.2676,-0.2665,-0.2498,0,0,0,0,0,-0.2621,-0.2655,-0.2683,-0.2732,-0.2747,-0.2739,-0.2752,-0.2733,-0.2728,-0.2718,-0.2692,-0.2665,-0.2665,-0.2659,-0.2656,-0.2696,-0.2649,-0.2717,-0.273,-0.2741,-0.2733,-0.2685,-0.2692,-0.2623,-0.2623,-0.2623,0,0,-0.264,-0.2663,-0.2681,-0.2737,-0.2744,-0.2791,-0.2736,-0.2769,-0.2798,-0.2718,-0.2743,-0.2718,-0.2689,-0.2718,-0.2728,-0.2694,-0.2747,-0.2748,-0.2757,-0.2743,-0.2692,-0.2698,-0.2703,-0.2626,-0.2626,-0.2625,0,0,-0.2694,-0.2722,-0.276,-0.2796,-0.2828,-0.2834,-0.2852,-0.2865,-0.2856,-0.2895,-0.2836,-0.2828,-0.2843,-0.2812,-0.2802,-0.2892,-0.2821,-0.2902,-0.295,-0.2906,-0.291,-0.2912,-0.29,-0.2901,-0.2901,-0.2901,-0.2902,0,-0.2714,-0.2773,-0.2783,-0.2838,-0.2868,-0.2861,-0.2914,-0.2931,-0.2945,-0.2938,-0.2915,-0.2898,-0.2881,-0.2887,-0.2918,-0.2918,-0.2889,-0.2892,-0.2919,-0.292,-0.2921,-0.2907,-0.2906,-0.2907,-0.2907,-0.2906,-0.2905,0,-0.279,-0.2845,-0.2879,-0.2938,-0.2978,-0.3029,-0.3056,-0.3078,-0.3066,-0.306,-0.3065,-0.3033,-0.2999,-0.3017,-0.3,-0.3009,-0.2988,-0.2944,-0.2872,-0.2934,-0.2917,-0.2914,-0.2916,-0.2914,-0.2912,-0.291,0,0,-0.2801,-0.2908,-0.2917,-0.2951,-0.3032,-0.3063,-0.3128,-0.3164,-0.3157,-0.3176,-0.3161,-0.3181,-0.3124,-0.3109,-0.3075,-0.3055,-0.3066,-0.3015,-0.301,-0.2991,-0.299,-0.2927,-0.2917,-0.3019,-0.3019,-0.3018,-0.2988,0,-0.2849,-0.2958,-0.3,-0.3092,-0.3145,-0.3171,-0.3218,-0.3244,-0.3241,-0.323,-0.3199,-0.3175,-0.3172,-0.3133,-0.3123,-0.3068,-0.3057,-0.3079,-0.2942,-0.2938,-0.2863,-0.2911,-0.2798,-0.2756,-0.2985,-0.2984,-0.2984,0,-0.289,-0.2959,-0.3061,-0.3139,-0.3159,-0.3208,-0.3234,-0.3276,-0.3275,-0.3259,-0.3233,-0.3192,-0.3179,-0.3146,-0.3095,-0.3107,-0.3066,-0.303,-0.3026,-0.2916,-0.2868,-0.2724,-0.2741,-0.2705,-0.2978,-0.2979,-0.2979,0,-0.286,-0.2986,-0.3059,-0.31,-0.3198,-0.3219,-0.3254,-0.3271,-0.3261,-0.3256,-0.3218,-0.3202,-0.3153,-0.3116,-0.3067,-0.3071,-0.2998,-0.2976,-0.2887,-0.2884,-0.2732,-0.2715,-0.2677,-0.293,-0.293,-0.293,-0.293,0,-0.2886,-0.2934,-0.3045,-0.3086,-0.3116,-0.3199,-0.3195,-0.3219,-0.3218,-0.3182,-0.3208,-0.3156,-0.3138,-0.3094,-0.3065,-0.2973,-0.2989,-0.29,-0.2863,-0.2775,-0.2763,-0.2676,-0.2696,-0.2929,-0.2929,-0.293,-0.293,0,-0.2826,-0.2922,-0.2984,-0.3087,-0.3103,-0.3114,-0.314,-0.3118,-0.3153,-0.3103,-0.3093,-0.3105,-0.3064,-0.3047,-0.298,-0.2939,-0.2814,-0.2832,-0.2754,-0.2708,-0.2582,-0.2613,-0.2525,-0.2453,-0.2726,-0.2725,-0.2723,0,-0.2802,-0.284,-0.2934,-0.294,-0.298,-0.3005,-0.2995,-0.3055,-0.3028,-0.3053,-0.3008,-0.2998,-0.2953,-0.2878,-0.2816,-0.2752,-0.2732,-0.2598,-0.2575,-0.2562,-0.257,-0.2589,-0.2536,-0.2442,-0.2439,-0.2436,-0.2433,0,-0.2717,-0.275,-0.2791,-0.2809,-0.2816,-0.281,-0.2818,-0.2795,-0.285,-0.2842,-0.2831,-0.2821,-0.2789,-0.2682,-0.2619,-0.2562,-0.2526,-0.2531,-0.2514,-0.2345,-0.2362,-0.2278,-0.2515,-0.2406,-0.2408,-0.241,-0.2412,-0.2413,-0.2602,-0.26,-0.2639,-0.2633,-0.2632,-0.2586,-0.2528,-0.2562,-0.2528,-0.25,-0.2609,-0.258,-0.2554,-0.2456,-0.2395,-0.2257,-0.2332,-0.2181,-0.2224,-0.225,-0.2158,-0.2358,-0.2205,-0.2206,-0.2208,-0.2209,-0.221,0,-0.245,-0.2456,-0.2448,-0.2429,-0.2341,-0.2403,-0.2362,-0.2289,-0.2223,-0.2293,-0.2291,-0.2307,-0.2196,-0.2181,-0.2078,-0.1979,-0.1931,-0.1931,-0.1929,-0.1891,-0.2044,-0.2006,-0.1804,-0.1804,-0.1804,-0.1805,-0.1805,-0.1805,-0.2368,-0.2312,-0.2315,-0.2129,-0.2098,-0.1943,-0.1889,-0.1846,-0.1858,-0.1846,-0.1906,-0.2009,-0.2021,-0.2104,-0.1946,-0.1842,-0.1789,-0.1738,-0.177,-0.1889,-0.1916,-0.1941,-0.1908,-0.1689,-0.1689,-0.153,-0.1529,-0.1528]},{"header":{"parameterUnit":"m.s-1","parameterCategory":2,"la1":30.2991,"la2":30.254,"lo1":-89.0895,"lo2":-89.0444,"dy":0.0017,"dx":0.0017,"nx":28,"ny":28,"refTime":"2023-11-16T09:00:00:Z","depth":"0","parameterNumber":3,"parameterNumberName":"V-component_of_CURRENTS"},"data":[0,0,0,0,0,0,0,0,0,0,0,0,0,0,0,0,0,0,0,0,0,0,0,0,0,0,0,0,0,0,0,0,0,0,0,0,0,0,0,0,0,0,0,0,0,0,0,0,0,0,0,0,0,0,0,0,0,0,-0.0475,-0.0474,0,-0.0374,-0.0373,-0.0372,-0.0292,-0.0292,-0.0291,-0.029,-0.0138,-0.0135,-0.0131,0,0,0,0,0,0,0,0,0,0,0,0,0,-0.0527,-0.0527,-0.0475,-0.0474,-0.0473,-0.0374,-0.0373,-0.0371,-0.0292,-0.0292,-0.0291,-0.029,-0.0139,-0.0135,-0.0131,0,0,0,0,0,0,0,0,0,0,0,0,0,-0.0472,-0.0527,-0.0475,-0.0423,-0.0417,-0.0375,-0.0373,-0.0371,-0.0293,-0.0292,-0.0291,-0.029,-0.014,-0.0135,-0.013,-0.0117,0,0,-0.0114,-0.0112,0,0,0,0,0,0,0,0,-0.0475,-0.047,-0.0432,-0.0426,-0.042,-0.0346,-0.0335,-0.0284,-0.0293,-0.0338,-0.029,-0.0289,-0.0205,-0.0194,-0.0175,-0.011,-0.0103,-0.0114,-0.0111,-0.0108,-0.0107,0,0,0,0,0,0,0,-0.0479,-0.0473,-0.0433,-0.043,-0.0423,-0.038,-0.0371,-0.0325,-0.0276,-0.0334,-0.0329,-0.032,-0.0201,-0.0181,-0.0171,-0.0101,-0.0114,-0.0109,-0.0106,-0.0104,0.0015,0.0015,0,0,0,0,0,0,-0.05,-0.0477,-0.0436,-0.043,-0.0448,-0.038,-0.037,-0.037,-0.0277,-0.0263,-0.0321,-0.0317,-0.019,-0.0177,-0.0166,-0.0129,-0.0108,-0.0103,-0.01,0.0015,0.0015,0.0015,0,0,0,0,0,0,-0.0501,-0.0497,-0.0441,-0.0452,-0.0442,-0.0381,-0.038,-0.0368,-0.035,-0.0268,-0.0252,-0.0316,-0.0189,-0.0173,-0.0121,-0.0123,-0.0101,-0.0096,0.0015,0.0015,0.0015,-0.0065,0,0,0,0,0,0,-0.0503,-0.0499,-0.0512,-0.0454,-0.0442,-0.0427,-0.0381,-0.0367,-0.0347,-0.034,-0.0258,-0.0243,-0.0187,-0.0129,-0.0116,-0.0115,-0.0092,0.0015,0.0015,0.0015,-0.0063,-0.0068,-0.0073,0,0,0,0,0,-0.0506,-0.0531,-0.0514,-0.0509,-0.0461,-0.0428,-0.0419,-0.0369,-0.0348,-0.0348,-0.0284,-0.0245,-0.0119,-0.0125,-0.0109,-0.0107,0.0015,0.0015,0.0015,-0.006,-0.0067,-0.0072,0,0,0,0,0,0,-0.0569,-0.0524,-0.0504,-0.0516,-0.048,-0.0416,-0.0416,-0.0381,-0.0332,-0.0324,-0.0244,-0.0225,-0.018,-0.0135,-0.0143,-0.0073,-0.0047,-0.0043,-0.0109,-0.0114,-0.0119,-0.0133,-0.0088,0,0,0,0,0,-0.0589,-0.0592,-0.054,-0.0552,-0.0538,-0.0479,-0.0462,-0.0428,-0.0375,-0.0353,-0.0292,-0.0226,-0.0168,-0.0136,-0.0081,-0.0046,0.0002,-0.0034,-0.0039,-0.0043,-0.0043,0.0027,0.0028,0.0015,0.0015,0.0015,0,0,-0.062,-0.0595,-0.0598,-0.0565,-0.0533,-0.0518,-0.0467,-0.0449,-0.0429,-0.0344,-0.0304,-0.0244,-0.0163,-0.0118,-0.0094,-0.008,-0.0016,-0.0043,-0.0048,-0.0045,0.0027,0.0029,0.003,0.0015,0.0015,0.0015,0,0,-0.0675,-0.0657,-0.0673,-0.0644,-0.0603,-0.0561,-0.0561,-0.05,-0.0467,-0.0424,-0.0353,-0.0294,-0.0214,-0.0149,-0.0107,-0.0108,-0.0047,-0.0095,-0.0127,-0.0059,-0.0057,-0.0055,-0.0005,0.0003,-0.0095,-0.0095,-0.0095,0,-0.0714,-0.0724,-0.0674,-0.0673,-0.0656,-0.0586,-0.059,-0.0546,-0.0474,-0.0444,-0.0423,-0.0287,-0.0226,-0.015,-0.0149,-0.0119,-0.0077,-0.0114,-0.0066,-0.0063,-0.0059,-0.0008,0.0001,-0.0099,-0.0099,-0.0098,-0.0098,0,-0.0764,-0.0774,-0.0782,-0.0753,-0.0725,-0.0724,-0.0651,-0.0619,-0.0571,-0.0517,-0.0442,-0.035,-0.0266,-0.0239,-0.0193,-0.0135,-0.0113,-0.0085,-0.0056,-0.0063,-0.0008,0.0003,-0.0105,-0.0103,-0.0102,-0.0101,0,0,-0.0841,-0.0824,-0.0827,-0.0831,-0.0768,-0.0754,-0.0714,-0.0657,-0.0625,-0.0551,-0.0502,-0.0401,-0.0346,-0.0294,-0.0222,-0.0162,-0.0107,-0.0122,-0.0117,-0.0081,0.0032,0.009,0.0108,-0.0071,-0.007,-0.0068,0.0056,0,-0.0897,-0.0934,-0.0891,-0.0911,-0.0921,-0.0838,-0.0801,-0.0733,-0.0662,-0.0596,-0.049,-0.0419,-0.0366,-0.0324,-0.0256,-0.0134,-0.008,-0.0144,0.0042,0.0048,0.0093,0.0122,0.0151,0.0269,0.0067,0.0069,0.007,0,-0.0953,-0.097,-0.1011,-0.099,-0.0982,-0.0968,-0.0892,-0.0852,-0.0731,-0.0672,-0.0578,-0.0488,-0.0375,-0.0338,-0.0146,-0.0189,-0.0093,-0.0007,0.0001,0.0092,0.0127,0.0248,0.0297,0.0449,0.0088,0.0086,0.0085,0,-0.1033,-0.1049,-0.1091,-0.1084,-0.1042,-0.1028,-0.099,-0.088,-0.0836,-0.0718,-0.0668,-0.0523,-0.0439,-0.0299,-0.0116,-0.013,0.0092,0.01,0.0239,0.0243,0.0326,0.0335,0.054,0.022,0.0219,0.0219,0.0219,0,-0.1108,-0.1142,-0.1137,-0.1157,-0.1178,-0.1108,-0.1088,-0.1022,-0.0915,-0.0859,-0.0719,-0.0636,-0.0425,-0.0267,-0.0123,0.0105,0.0092,0.0245,0.0289,0.0298,0.0303,0.0486,0.0541,0.0224,0.0223,0.0222,0.0221,0,-0.119,-0.1195,-0.1242,-0.1227,-0.1222,-0.1232,-0.1167,-0.1137,-0.1029,-0.0949,-0.0913,-0.0708,-0.0491,-0.0274,-0.0024,0.0108,0.0416,0.0381,0.037,0.0411,0.0677,0.0724,0.0979,0.1077,0.0556,0.0558,0.056,0,-0.124,-0.1277,-0.1302,-0.1325,-0.1324,-0.1322,-0.1304,-0.121,-0.1161,-0.0986,-0.0946,-0.0723,-0.0542,-0.0147,0.0134,0.0418,0.0526,0.0597,0.0583,0.0715,0.08,0.0833,0.0897,0.0654,0.0657,0.0659,0.066,0,-0.1325,-0.1333,-0.1366,-0.1411,-0.1425,-0.1424,-0.1388,-0.1368,-0.1236,-0.1143,-0.0974,-0.0821,-0.042,-0.0052,0.0328,0.0487,0.0723,0.0649,0.0803,0.0916,0.095,0.1056,0.0531,0.0679,0.0677,0.0676,0.0675,0.0674,-0.1378,-0.1424,-0.1458,-0.1489,-0.15,-0.1488,-0.1475,-0.1414,-0.1333,-0.1158,-0.101,-0.0739,-0.0212,0.0346,0.0545,0.0955,0.0903,0.1052,0.1103,0.1127,0.122,0.073,0.0916,0.0916,0.0916,0.0915,0.0915,0,-0.1446,-0.1482,-0.1523,-0.155,-0.1541,-0.1531,-0.1491,-0.1443,-0.1345,-0.1163,-0.0971,-0.0389,0.0131,0.0603,0.1196,0.1402,0.1438,0.1482,0.1534,0.1582,0.1173,0.1175,0.1406,0.1406,0.1406,0.1406,0.1405,0.1405,-0.1485,-0.1548,-0.1559,-0.1561,-0.1559,-0.1531,-0.1501,-0.1421,-0.1278,-0.0958,-0.0634,-0.0381,0.0305,0.1266,0.1793,0.1822,0.1992,0.1956,0.2061,0.1766,0.1729,0.1693,0.1711,0.205,0.2051,0.2451,0.2455,0.2458]}],[{"header":{"parameterUnit":"m.s-1","parameterCategory":2,"la1":30.2991,"la2":30.254,"lo1":-89.0895,"lo2":-89.0444,"dy":0.0017,"dx":0.0017,"nx":28,"ny":28,"refTime":"2023-11-16T09:00:00:Z","depth":"2","parameterNumber":2,"parameterNumberName":"U-component_of_CURRENTS"},"data":[0,0,0,0,0,0,0,0,0,0,0,0,0,0,0,0,0,0,0,0,0,0,0,0,0,0,0,0,0,0,0,0,0,0,0,0,0,0,0,0,0,0,0,0,0,0,0,0,0,0,0,0,0,0,0,0,0,0,-0.2208,-0.2208,0,-0.2258,-0.2259,-0.2259,-0.2231,-0.223,-0.2228,-0.2227,-0.2204,-0.2204,-0.2205,0,0,0,0,0,0,0,0,0,0,0,0,0,-0.2127,-0.2128,-0.2207,-0.2208,-0.2209,-0.2258,-0.2259,-0.2259,-0.2231,-0.223,-0.2228,-0.2227,-0.2204,-0.2204,-0.2205,0,0,0,0,0,0,0,0,0,0,0,0,0,-0.2165,-0.2128,-0.2207,-0.2203,-0.2203,-0.2258,-0.2259,-0.2259,-0.2231,-0.223,-0.2228,-0.2226,-0.2204,-0.2204,-0.2205,-0.2244,0,0,-0.2207,-0.2207,0,0,0,0,0,0,0,0,-0.2163,-0.2168,-0.2203,-0.2203,-0.2204,-0.2239,-0.2222,-0.2252,-0.2232,-0.2218,-0.2227,-0.2225,-0.2212,-0.2212,-0.2222,-0.2243,-0.2242,-0.2207,-0.2208,-0.2208,-0.2208,0,0,0,0,0,0,0,-0.216,-0.2166,-0.2225,-0.2204,-0.2205,-0.2213,-0.2216,-0.2228,-0.2221,-0.2219,-0.2218,-0.2228,-0.2211,-0.2222,-0.2221,-0.2242,-0.2207,-0.2208,-0.2208,-0.2209,-0.2292,-0.2294,0,0,0,0,0,0,-0.216,-0.2164,-0.2223,-0.2227,-0.2182,-0.2216,-0.2219,-0.2227,-0.2222,-0.2221,-0.223,-0.2227,-0.2222,-0.2221,-0.222,-0.2272,-0.2208,-0.2209,-0.2209,-0.2291,-0.2293,-0.2295,0,0,0,0,0,0,-0.2158,-0.2165,-0.2221,-0.2198,-0.2206,-0.2219,-0.2229,-0.2229,-0.2242,-0.2231,-0.2228,-0.2242,-0.222,-0.2219,-0.2237,-0.227,-0.2209,-0.221,-0.2288,-0.2291,-0.2294,-0.2371,0,0,0,0,0,0,-0.2155,-0.2163,-0.2172,-0.2198,-0.2208,-0.2259,-0.2231,-0.2232,-0.2253,-0.2249,-0.2242,-0.2237,-0.2219,-0.2237,-0.2238,-0.227,-0.221,-0.2286,-0.229,-0.2293,-0.2366,-0.2376,-0.2384,0,0,0,0,0,-0.2152,-0.2174,-0.2172,-0.2179,-0.2218,-0.226,-0.2266,-0.2267,-0.2255,-0.227,-0.2264,-0.2238,-0.2259,-0.2239,-0.224,-0.2273,-0.2284,-0.2289,-0.2293,-0.2362,-0.2374,-0.2384,0,0,0,0,0,0,-0.2146,-0.2175,-0.2172,-0.2201,-0.223,-0.2256,-0.2277,-0.2279,-0.2289,-0.2285,-0.2263,-0.226,-0.2288,-0.2275,-0.2253,-0.2308,-0.2268,-0.2272,-0.232,-0.2331,-0.234,-0.234,-0.2211,0,0,0,0,0,-0.215,-0.217,-0.22,-0.2224,-0.2241,-0.2262,-0.228,-0.2285,-0.2299,-0.2302,-0.2301,-0.2301,-0.231,-0.2313,-0.232,-0.2353,-0.2327,-0.2375,-0.2384,-0.2392,-0.2394,-0.2378,-0.2385,-0.2308,-0.2308,-0.2308,0,0,-0.2153,-0.2174,-0.2184,-0.2224,-0.2246,-0.2291,-0.2268,-0.2306,-0.234,-0.23,-0.2343,-0.2336,-0.2327,-0.2361,-0.2372,-0.235,-0.2405,-0.2397,-0.2404,-0.2401,-0.2383,-0.239,-0.2396,-0.2311,-0.231,-0.231,0,0,-0.2183,-0.2193,-0.2223,-0.2256,-0.2299,-0.2318,-0.2332,-0.2369,-0.2378,-0.242,-0.24,-0.241,-0.2432,-0.243,-0.243,-0.2497,-0.2455,-0.2504,-0.2549,-0.2535,-0.254,-0.2545,-0.2536,-0.2539,-0.2507,-0.2507,-0.2507,0,-0.2191,-0.2227,-0.2241,-0.2289,-0.2321,-0.2334,-0.2382,-0.2408,-0.2445,-0.2452,-0.2441,-0.2469,-0.2464,-0.2493,-0.2519,-0.2517,-0.2501,-0.2506,-0.2545,-0.2549,-0.2552,-0.2541,-0.2544,-0.2511,-0.2511,-0.251,-0.251,0,-0.2242,-0.228,-0.2308,-0.2367,-0.2405,-0.245,-0.2489,-0.2521,-0.2532,-0.2541,-0.257,-0.2566,-0.2569,-0.2585,-0.2575,-0.2606,-0.2586,-0.2558,-0.2513,-0.2564,-0.255,-0.2551,-0.2517,-0.2516,-0.2514,-0.2513,0,0,-0.2237,-0.2325,-0.2332,-0.2367,-0.2448,-0.2478,-0.2548,-0.2592,-0.2613,-0.2642,-0.2663,-0.2691,-0.2666,-0.2666,-0.2655,-0.2656,-0.2678,-0.2626,-0.2624,-0.2611,-0.2651,-0.2575,-0.2568,-0.2653,-0.2653,-0.2654,-0.2637,0,-0.2272,-0.2356,-0.2396,-0.2478,-0.2527,-0.2569,-0.2624,-0.2665,-0.2685,-0.271,-0.2704,-0.2716,-0.2704,-0.27,-0.2705,-0.2682,-0.2682,-0.2686,-0.2609,-0.2607,-0.2526,-0.2567,-0.2379,-0.2342,-0.2637,-0.2637,-0.2637,0,-0.2296,-0.2355,-0.2437,-0.2521,-0.2544,-0.2597,-0.2661,-0.2709,-0.2748,-0.2757,-0.2767,-0.2755,-0.2772,-0.2744,-0.273,-0.2732,-0.2702,-0.2683,-0.2681,-0.258,-0.2532,-0.2336,-0.2332,-0.2638,-0.2638,-0.2638,-0.2638,0,-0.2262,-0.237,-0.2428,-0.2466,-0.2574,-0.2612,-0.2659,-0.2715,-0.2734,-0.2777,-0.278,-0.2793,-0.2785,-0.2766,-0.273,-0.273,-0.2702,-0.2685,-0.2591,-0.2585,-0.2394,-0.237,-0.2668,-0.2668,-0.2668,-0.2668,-0.2668,0,-0.2274,-0.2317,-0.2416,-0.2455,-0.2507,-0.2594,-0.2634,-0.2682,-0.2733,-0.2738,-0.2784,-0.2781,-0.2788,-0.2769,-0.2742,-0.2666,-0.2702,-0.2604,-0.2574,-0.2418,-0.2398,-0.2624,-0.2619,-0.2668,-0.2668,-0.2668,-0.2668,0,-0.2225,-0.2295,-0.2359,-0.2469,-0.2495,-0.2528,-0.2603,-0.2618,-0.269,-0.2703,-0.2713,-0.2764,-0.2744,-0.2738,-0.2705,-0.2657,-0.2608,-0.2568,-0.2392,-0.2342,-0.2503,-0.2503,-0.2469,-0.2467,-0.2464,-0.2462,-0.246,0,-0.2215,-0.2237,-0.2335,-0.2351,-0.24,-0.2457,-0.2478,-0.2571,-0.2587,-0.2671,-0.2662,-0.2684,-0.2654,-0.2601,-0.2534,-0.2467,-0.2536,-0.2255,-0.2219,-0.2507,-0.2483,-0.2486,-0.2489,-0.2005,-0.1999,-0.1995,-0.1991,0,-0.216,-0.2178,-0.2227,-0.2261,-0.2291,-0.232,-0.237,-0.2381,-0.2478,-0.25,-0.2521,-0.2517,-0.2492,-0.2342,-0.2277,-0.2213,-0.2256,-0.2164,-0.2491,-0.2088,-0.2068,-0.2045,-0.2062,-0.1953,-0.1957,-0.196,-0.1962,-0.1963,-0.2083,-0.2082,-0.2112,-0.2137,-0.2165,-0.2162,-0.2134,-0.2193,-0.2198,-0.2204,-0.2306,-0.2244,-0.2241,-0.2044,-0.1942,-0.1869,-0.2023,-0.1926,-0.194,-0.1958,-0.1911,-0.1888,-0.1731,-0.1734,-0.1736,-0.1738,-0.1739,0,-0.1958,-0.1957,-0.1971,-0.1983,-0.1954,-0.2017,-0.2026,-0.197,-0.1926,-0.1976,-0.1969,-0.1786,-0.1695,-0.17,-0.1532,-0.1499,-0.1484,-0.1431,-0.141,-0.145,-0.1484,-0.1414,-0.1102,-0.11,-0.1098,-0.1096,0,0,-0.188,-0.1842,-0.1853,-0.176,-0.1763,-0.1665,-0.1637,-0.1589,-0.1586,-0.1512,-0.1487,-0.1611,-0.1658,-0.1384,-0.1317,-0.1183,-0.1302,-0.1123,-0.1636,-0.1651,-0.1683,-0.1771,-0.1707,0,0,0,0,0]},{"header":{"parameterUnit":"m.s-1","parameterCategory":2,"la1":30.2991,"la2":30.254,"lo1":-89.0895,"lo2":-89.0444,"dy":0.0017,"dx":0.0017,"nx":28,"ny":28,"refTime":"2023-11-16T09:00:00:Z","depth":"2","parameterNumber":3,"parameterNumberName":"V-component_of_CURRENTS"},"data":[0,0,0,0,0,0,0,0,0,0,0,0,0,0,0,0,0,0,0,0,0,0,0,0,0,0,0,0,0,0,0,0,0,0,0,0,0,0,0,0,0,0,0,0,0,0,0,0,0,0,0,0,0,0,0,0,0,0,-0.0231,-0.023,0,-0.0172,-0.0171,-0.017,-0.0124,-0.0124,-0.0123,-0.0123,0.0002,0.0005,0.0008,0,0,0,0,0,0,0,0,0,0,0,0,0,-0.0273,-0.0272,-0.0231,-0.023,-0.0229,-0.0172,-0.0171,-0.017,-0.0124,-0.0124,-0.0123,-0.0123,0.0001,0.0005,0.0009,0,0,0,0,0,0,0,0,0,0,0,0,0,-0.0237,-0.0272,-0.0231,-0.0201,-0.0198,-0.0172,-0.0171,-0.0169,-0.0124,-0.0124,-0.0123,-0.0123,0.0,0.0005,0.0009,0.003,0,0,0.0023,0.0025,0,0,0,0,0,0,0,0,-0.0239,-0.0235,-0.0206,-0.0203,-0.02,-0.0156,-0.014,-0.01,-0.0124,-0.015,-0.0123,-0.0123,-0.0046,-0.0038,-0.0026,0.0035,0.0041,0.0024,0.0027,0.0029,0.003,0,0,0,0,0,0,0,-0.0241,-0.0237,-0.0205,-0.0205,-0.0202,-0.018,-0.0175,-0.0132,-0.0099,-0.0148,-0.0145,-0.0141,-0.0043,-0.003,-0.0022,0.0043,0.0024,0.0028,0.0031,0.0032,0.0138,0.0138,0,0,0,0,0,0,-0.0254,-0.024,-0.0207,-0.0204,-0.0221,-0.018,-0.0174,-0.0169,-0.01,-0.0091,-0.0142,-0.014,-0.0039,-0.0028,-0.0018,0.0014,0.0028,0.0033,0.0035,0.0138,0.0138,0.0138,0,0,0,0,0,0,-0.0255,-0.0252,-0.021,-0.0222,-0.0215,-0.018,-0.0175,-0.0168,-0.0157,-0.0097,-0.0085,-0.0138,-0.0038,-0.0024,0.002,0.0019,0.0035,0.0039,0.0138,0.0138,0.0138,0.0075,0,0,0,0,0,0,-0.0257,-0.0253,-0.0256,-0.0223,-0.0215,-0.0201,-0.0175,-0.0167,-0.0156,-0.0152,-0.0089,-0.0077,-0.0036,0.0013,0.0025,0.0026,0.0043,0.0138,0.0138,0.0138,0.0077,0.0073,0.0069,0,0,0,0,0,-0.0259,-0.0268,-0.0256,-0.0253,-0.022,-0.0202,-0.0196,-0.0168,-0.0157,-0.0156,-0.011,-0.0079,0.0022,0.0016,0.003,0.0033,0.0138,0.0138,0.0138,0.0079,0.0074,0.0069,0,0,0,0,0,0,-0.0287,-0.0263,-0.025,-0.0251,-0.0231,-0.0195,-0.0196,-0.0175,-0.0139,-0.0136,-0.0076,-0.0061,-0.0024,0.0013,0.0006,0.0063,0.0084,0.0087,0.0034,0.003,0.0026,0.0013,0.0047,0,0,0,0,0,-0.0296,-0.0298,-0.0268,-0.027,-0.0263,-0.0231,-0.0221,-0.0203,-0.0168,-0.0153,-0.0108,-0.0058,-0.0013,0.0014,0.0057,0.009,0.0131,0.01,0.0096,0.0093,0.0092,0.0155,0.0157,0.0139,0.0139,0.0139,0,0,-0.0309,-0.0297,-0.0297,-0.0277,-0.0261,-0.0259,-0.0224,-0.0217,-0.0209,-0.0143,-0.0118,-0.0071,-0.0007,0.0028,0.0048,0.006,0.0118,0.0093,0.0089,0.0091,0.0156,0.0158,0.0159,0.0139,0.0139,0.0139,0,0,-0.0346,-0.0325,-0.0343,-0.033,-0.0313,-0.0286,-0.0288,-0.0254,-0.0232,-0.0202,-0.0152,-0.0105,-0.0042,0.0007,0.004,0.0041,0.0093,0.0052,0.0027,0.0088,0.009,0.0092,0.0135,0.0142,0.0052,0.0052,0.0052,0,-0.0365,-0.038,-0.0345,-0.0359,-0.0355,-0.0303,-0.0319,-0.0287,-0.0241,-0.0219,-0.0204,-0.0099,-0.0051,0.0009,0.0007,0.0033,0.007,0.0037,0.0082,0.0085,0.0089,0.0133,0.0141,0.0049,0.0049,0.005,0.005,0,-0.0412,-0.0426,-0.0436,-0.0432,-0.0417,-0.0424,-0.0376,-0.0353,-0.0318,-0.0279,-0.0219,-0.0146,-0.0083,-0.0061,-0.0025,0.0025,0.0042,0.0066,0.009,0.0087,0.0134,0.0143,0.0045,0.0046,0.0047,0.0047,0,0,-0.0456,-0.0469,-0.0473,-0.049,-0.0459,-0.0454,-0.0429,-0.039,-0.037,-0.031,-0.0276,-0.0192,-0.0146,-0.0106,-0.0049,0.0005,0.0056,0.0039,0.0043,0.0075,0.018,0.0217,0.0232,0.0088,0.009,0.0091,0.0198,0,-0.0508,-0.0561,-0.0539,-0.0573,-0.0596,-0.0536,-0.0516,-0.0467,-0.041,-0.0361,-0.0268,-0.0215,-0.0164,-0.0134,-0.007,0.003,0.0081,0.0024,0.0185,0.019,0.0218,0.0244,0.0205,0.03,0.0208,0.021,0.0211,0,-0.0562,-0.0595,-0.0648,-0.0654,-0.0654,-0.0654,-0.0606,-0.058,-0.0485,-0.0439,-0.0358,-0.0281,-0.0183,-0.0148,0.0025,-0.0014,0.0072,0.0147,0.0153,0.0219,0.0246,0.0293,0.0322,0.0228,0.0227,0.0225,0.0224,0,-0.0625,-0.0662,-0.0711,-0.0717,-0.0712,-0.0712,-0.069,-0.0611,-0.0584,-0.0488,-0.0452,-0.032,-0.0255,-0.0121,0.0042,0.0034,0.0227,0.0238,0.0352,0.0355,0.037,0.0372,0.0349,0.0349,0.0349,0.0348,0.0348,0,-0.0692,-0.0731,-0.0751,-0.0785,-0.0823,-0.0784,-0.0787,-0.0739,-0.0666,-0.0628,-0.0502,-0.0436,-0.0245,-0.0105,0.0033,0.0232,0.0227,0.0357,0.0393,0.0346,0.0344,0.0321,0.0316,0.0352,0.0351,0.0351,0.035,0,-0.0761,-0.0774,-0.0838,-0.086,-0.0865,-0.0891,-0.0866,-0.0854,-0.0775,-0.0721,-0.0693,-0.0518,-0.0326,-0.0128,0.0097,0.0221,0.0402,0.0465,0.039,0.0417,0.0485,0.0476,0.0605,0.0608,0.061,0.0611,0.0613,0,-0.0811,-0.0851,-0.0906,-0.0939,-0.0957,-0.0981,-0.0985,-0.0924,-0.0898,-0.0761,-0.0735,-0.0545,-0.0389,-0.0039,0.0208,0.0465,0.0459,0.0568,0.0553,0.0493,0.0516,0.0504,0.0492,0.0541,0.0542,0.0542,0.0543,0,-0.0901,-0.091,-0.096,-0.103,-0.1062,-0.1085,-0.1084,-0.108,-0.0985,-0.0914,-0.0776,-0.0643,-0.0302,-0.0007,0.0323,0.0462,0.0528,0.0589,0.0567,0.0481,0.0442,0.0461,0.045,0.0548,0.0548,0.0547,0.0547,0.0547,-0.0956,-0.1005,-0.1055,-0.1112,-0.1146,-0.1164,-0.1167,-0.1135,-0.1084,-0.0945,-0.0818,-0.0587,-0.0304,0.0176,0.041,0.0617,0.0611,0.0659,0.0654,0.0648,0.0621,0.0588,0.0715,0.0715,0.0715,0.0716,0.0716,0,-0.1011,-0.1054,-0.1122,-0.1179,-0.1209,-0.121,-0.1204,-0.1168,-0.1096,-0.095,-0.079,-0.046,-0.0128,0.0159,0.0502,0.0708,0.0675,0.0726,0.0647,0.064,0.0635,0.0603,0.0695,0.0696,0.0696,0.0697,0,0,-0.1038,-0.1117,-0.1148,-0.1211,-0.1237,-0.1244,-0.123,-0.1159,-0.1044,-0.0883,-0.0709,-0.0474,-0.0116,0.0127,0.038,0.0554,0.0538,0.0557,0.055,0.042,0.0412,0.0573,0.0515,0,0,0,0,0]}],[{"header":{"parameterUnit":"m.s-1","parameterCategory":2,"la1":30.2991,"la2":30.254,"lo1":-89.0895,"lo2":-89.0444,"dy":0.0017,"dx":0.0017,"nx":28,"ny":28,"refTime":"2023-11-16T09:00:00:Z","depth":"4","parameterNumber":2,"parameterNumberName":"U-component_of_CURRENTS"},"data":[0,0,0,0,0,0,0,0,0,0,0,0,0,0,0,0,0,0,0,0,0,0,0,0,0,0,0,0,0,0,0,0,0,0,0,0,0,0,0,0,0,0,0,0,0,0,0,0,0,0,0,0,0,0,0,0,0,0,-0.1494,-0.1495,0,-0.1567,-0.1568,-0.1568,-0.163,-0.1631,-0.1632,-0.1633,-0.1708,-0.1709,-0.171,0,0,0,0,0,0,0,0,0,0,0,0,0,-0.1421,-0.1422,-0.1494,-0.1495,-0.1496,-0.1567,-0.1568,-0.1569,-0.163,-0.1631,-0.1632,-0.1633,-0.1707,-0.1709,-0.171,0,0,0,0,0,0,0,0,0,0,0,0,0,-0.1468,-0.1422,-0.1494,-0.1536,-0.1541,-0.1567,-0.1568,-0.1569,-0.163,-0.1631,-0.1632,-0.1633,-0.1707,-0.1709,-0.1711,-0.1698,0,0,-0.1716,-0.1717,0,0,0,0,0,0,0,0,-0.1465,-0.147,-0.1529,-0.1533,-0.1539,-0.1592,-0.157,-0.1613,-0.163,-0.1594,-0.1633,-0.1634,-0.1669,-0.1674,-0.1683,-0.1701,-0.1705,-0.1717,-0.1718,-0.1718,-0.1719,0,0,0,0,0,0,0,-0.1461,-0.1467,-0.1521,-0.153,-0.1536,-0.1556,-0.1564,-0.1578,-0.1623,-0.1598,-0.1603,-0.1613,-0.1672,-0.1681,-0.1686,-0.1706,-0.1716,-0.1718,-0.1719,-0.172,-0.1817,-0.1819,0,0,0,0,0,0,-0.1453,-0.1464,-0.1519,-0.1524,-0.1506,-0.1557,-0.1565,-0.1572,-0.1623,-0.1632,-0.1612,-0.1615,-0.1678,-0.1683,-0.1688,-0.1768,-0.1718,-0.172,-0.1721,-0.1816,-0.1818,-0.1819,0,0,0,0,0,0,-0.1451,-0.1457,-0.1516,-0.1497,-0.1506,-0.1557,-0.1564,-0.1573,-0.1608,-0.1634,-0.1643,-0.164,-0.1679,-0.1686,-0.1733,-0.1768,-0.1721,-0.1723,-0.1814,-0.1817,-0.1819,-0.1868,0,0,0,0,0,0,-0.1449,-0.1456,-0.1463,-0.1496,-0.1507,-0.1547,-0.1564,-0.1574,-0.1611,-0.1617,-0.1661,-0.1668,-0.168,-0.173,-0.1735,-0.177,-0.1724,-0.1812,-0.1815,-0.1818,-0.1865,-0.1872,-0.1878,0,0,0,0,0,-0.1446,-0.1449,-0.1463,-0.147,-0.1513,-0.1547,-0.1555,-0.1594,-0.1611,-0.1629,-0.1667,-0.1668,-0.1751,-0.1732,-0.1738,-0.1774,-0.1811,-0.1815,-0.1818,-0.1862,-0.187,-0.1878,0,0,0,0,0,0,-0.1416,-0.1457,-0.1472,-0.1487,-0.1522,-0.1559,-0.158,-0.1603,-0.1645,-0.1661,-0.1682,-0.1692,-0.1748,-0.1751,-0.173,-0.1811,-0.1782,-0.1787,-0.1814,-0.1822,-0.1829,-0.1834,-0.1726,0,0,0,0,0,-0.1412,-0.1431,-0.147,-0.1483,-0.1503,-0.1544,-0.1565,-0.1596,-0.1634,-0.1655,-0.1687,-0.1723,-0.176,-0.1783,-0.181,-0.1848,-0.1842,-0.1876,-0.1883,-0.1888,-0.1897,-0.192,-0.1929,-0.183,-0.183,-0.183,0,0,-0.1408,-0.1429,-0.1442,-0.1479,-0.1511,-0.1549,-0.1561,-0.1604,-0.1645,-0.1655,-0.1721,-0.1747,-0.1775,-0.1828,-0.1853,-0.1838,-0.1912,-0.1893,-0.1897,-0.1903,-0.1924,-0.1934,-0.1942,-0.1832,-0.1832,-0.1832,0,0,-0.1408,-0.1426,-0.1449,-0.1483,-0.1535,-0.1561,-0.1577,-0.1631,-0.1669,-0.1725,-0.1751,-0.1799,-0.1847,-0.1882,-0.1902,-0.1958,-0.1945,-0.1969,-0.2009,-0.2031,-0.2039,-0.2046,-0.2039,-0.2045,-0.1973,-0.1973,-0.1973,0,-0.1401,-0.1431,-0.146,-0.1496,-0.153,-0.1569,-0.161,-0.165,-0.1715,-0.1755,-0.1756,-0.1854,-0.1874,-0.1947,-0.1973,-0.1974,-0.1973,-0.1976,-0.2039,-0.2046,-0.2053,-0.2044,-0.205,-0.1976,-0.1975,-0.1975,-0.1975,0,-0.1424,-0.1457,-0.1475,-0.1534,-0.1572,-0.1611,-0.1672,-0.1722,-0.1766,-0.1809,-0.1894,-0.1924,-0.1984,-0.1999,-0.2006,-0.2072,-0.2052,-0.2043,-0.2017,-0.2066,-0.2053,-0.2058,-0.198,-0.1979,-0.1978,-0.1977,0,0,-0.1387,-0.1473,-0.1484,-0.1523,-0.1598,-0.1633,-0.1709,-0.1786,-0.1851,-0.1907,-0.1984,-0.2046,-0.2067,-0.2091,-0.2106,-0.2129,-0.2167,-0.2111,-0.2111,-0.2099,-0.22,-0.204,-0.203,-0.2172,-0.2173,-0.2175,-0.2168,0,-0.1397,-0.1462,-0.151,-0.1583,-0.1621,-0.1692,-0.1763,-0.1845,-0.1911,-0.1994,-0.2042,-0.2115,-0.21,-0.2138,-0.216,-0.2173,-0.2186,-0.2169,-0.2159,-0.2158,-0.2006,-0.2033,-0.218,-0.2171,-0.2173,-0.2174,-0.2174,0,-0.1399,-0.1446,-0.1517,-0.1618,-0.1646,-0.1705,-0.1827,-0.1897,-0.2019,-0.2076,-0.215,-0.2187,-0.2247,-0.2219,-0.2253,-0.2244,-0.2229,-0.2223,-0.2223,-0.2061,-0.2008,-0.2116,-0.2184,-0.2183,-0.2182,-0.2181,-0.2181,0,-0.1348,-0.1447,-0.1502,-0.1538,-0.1662,-0.1725,-0.1798,-0.1926,-0.2002,-0.213,-0.2186,-0.226,-0.2295,-0.2304,-0.2282,-0.2281,-0.2294,-0.2287,-0.2127,-0.2115,-0.2239,-0.2232,-0.2306,-0.2306,-0.2306,-0.2306,-0.2306,0,-0.1323,-0.1371,-0.149,-0.1526,-0.1617,-0.1713,-0.1828,-0.1918,-0.205,-0.2126,-0.222,-0.2262,-0.2319,-0.2327,-0.2306,-0.2213,-0.2307,-0.2132,-0.2105,-0.2258,-0.2253,-0.2242,-0.2235,-0.2306,-0.2306,-0.2306,-0.2306,0,-0.1257,-0.1332,-0.1404,-0.1542,-0.1595,-0.1662,-0.1833,-0.1909,-0.204,-0.2135,-0.2175,-0.2276,-0.2272,-0.2292,-0.2297,-0.2216,-0.2168,-0.2112,-0.2261,-0.2242,-0.1971,-0.1967,-0.194,-0.1934,-0.1929,-0.1925,-0.1922,0,-0.1222,-0.1252,-0.1401,-0.1455,-0.1525,-0.1645,-0.173,-0.1888,-0.1955,-0.2109,-0.2128,-0.2188,-0.2224,-0.2089,-0.2134,-0.2073,-0.2046,-0.2009,-0.2004,-0.1959,-0.1936,-0.1939,-0.1941,-0.1914,-0.1913,-0.1912,-0.191,0,-0.115,-0.1213,-0.1279,-0.1393,-0.1486,-0.1586,-0.1705,-0.174,-0.1897,-0.2028,-0.202,-0.2012,-0.2,-0.1978,-0.1937,-0.1899,-0.2032,-0.1959,-0.1969,-0.1964,-0.1928,-0.191,-0.1918,-0.1894,-0.1896,-0.1898,-0.1899,0,-0.1087,-0.1115,-0.1209,-0.1307,-0.1421,-0.1483,-0.1564,-0.1625,-0.1703,-0.1857,-0.1841,-0.1894,-0.1972,-0.1887,-0.1853,-0.1796,-0.1773,-0.1716,-0.1738,-0.1757,-0.1699,-0.1626,-0.1473,0,0,0,0,0,-0.1009,-0.1042,-0.112,-0.1212,-0.1327,-0.1391,-0.153,-0.1607,-0.1743,-0.1685,-0.1759,-0.1735,-0.1687,-0.1719,-0.1619,-0.1775,-0.1785,-0.1653,-0.1733,-0.1802,-0.1821,-0.1768,0,0,0,0,0,0,-0.0955,-0.1018,-0.1072,-0.1121,-0.1166,-0.1267,-0.1344,-0.1436,-0.1413,-0.1547,-0.1522,-0.1619,-0.1593,-0.1703,-0.1577,-0.1586,-0.1598,-0.1694,-0.1689,-0.1791,-0.1808,-0.1824,-0.1776,0,0,0,0,0]},{"header":{"parameterUnit":"m.s-1","parameterCategory":2,"la1":30.2991,"la2":30.254,"lo1":-89.0895,"lo2":-89.0444,"dy":0.0017,"dx":0.0017,"nx":28,"ny":28,"refTime":"2023-11-16T09:00:00:Z","depth":"4","parameterNumber":3,"parameterNumberName":"V-component_of_CURRENTS"},"data":[0,0,0,0,0,0,0,0,0,0,0,0,0,0,0,0,0,0,0,0,0,0,0,0,0,0,0,0,0,0,0,0,0,0,0,0,0,0,0,0,0,0,0,0,0,0,0,0,0,0,0,0,0,0,0,0,0,0,-0.0121,-0.0121,0,-0.0093,-0.0093,-0.0092,-0.007,-0.007,-0.007,-0.007,0.0022,0.0024,0.0026,0,0,0,0,0,0,0,0,0,0,0,0,0,-0.014,-0.014,-0.0121,-0.0121,-0.0121,-0.0093,-0.0093,-0.0092,-0.007,-0.007,-0.007,-0.007,0.0021,0.0024,0.0026,0,0,0,0,0,0,0,0,0,0,0,0,0,-0.0123,-0.014,-0.0121,-0.0107,-0.0106,-0.0093,-0.0093,-0.0092,-0.007,-0.007,-0.007,-0.007,0.002,0.0023,0.0027,0.0046,0,0,0.0038,0.0039,0,0,0,0,0,0,0,0,-0.0124,-0.0122,-0.011,-0.0108,-0.0107,-0.0086,-0.0066,-0.0043,-0.007,-0.0082,-0.007,-0.007,-0.0009,-0.0004,0.0002,0.005,0.0054,0.0038,0.004,0.0042,0.0043,0,0,0,0,0,0,0,-0.0125,-0.0123,-0.0109,-0.0109,-0.0108,-0.0097,-0.0095,-0.0062,-0.0045,-0.0081,-0.008,-0.0079,-0.0008,-0.0001,0.0005,0.0055,0.0038,0.0041,0.0043,0.0045,0.0123,0.0123,0,0,0,0,0,0,-0.0132,-0.0124,-0.011,-0.0108,-0.0117,-0.0097,-0.0094,-0.0092,-0.0046,-0.004,-0.0079,-0.0078,-0.0007,0.0001,0.0008,0.0029,0.0042,0.0045,0.0047,0.0123,0.0123,0.0123,0,0,0,0,0,0,-0.0133,-0.0131,-0.0111,-0.0117,-0.0113,-0.0097,-0.0095,-0.0091,-0.0086,-0.0046,-0.0038,-0.0077,-0.0007,0.0003,0.0034,0.0033,0.0046,0.005,0.0123,0.0123,0.0123,0.0075,0,0,0,0,0,0,-0.0133,-0.0131,-0.0132,-0.0117,-0.0113,-0.0109,-0.0095,-0.0091,-0.0086,-0.0084,-0.0042,-0.0033,-0.0006,0.0029,0.0038,0.0038,0.0052,0.0123,0.0123,0.0123,0.0076,0.0073,0.007,0,0,0,0,0,-0.0134,-0.0138,-0.0132,-0.0131,-0.0115,-0.011,-0.0107,-0.0094,-0.0086,-0.0087,-0.0057,-0.0035,0.0035,0.0032,0.0042,0.0044,0.0123,0.0123,0.0123,0.0078,0.0073,0.007,0,0,0,0,0,0,-0.0141,-0.0135,-0.0129,-0.0129,-0.0123,-0.0106,-0.0107,-0.0097,-0.0075,-0.0073,-0.0032,-0.0022,0.0003,0.0032,0.0027,0.0066,0.0082,0.0084,0.0044,0.0041,0.0037,0.003,0.0055,0,0,0,0,0,-0.0145,-0.0149,-0.0138,-0.0138,-0.0137,-0.0122,-0.0119,-0.0112,-0.0092,-0.0083,-0.0052,-0.0018,0.0012,0.0031,0.006,0.0086,0.012,0.0093,0.009,0.0087,0.0088,0.0144,0.0146,0.0123,0.0123,0.0123,0,0,-0.0148,-0.0145,-0.0147,-0.0141,-0.0134,-0.0142,-0.012,-0.012,-0.0121,-0.0074,-0.0062,-0.0029,0.0015,0.0038,0.0053,0.0063,0.011,0.0087,0.0084,0.0087,0.0144,0.0146,0.0148,0.0123,0.0123,0.0123,0,0,-0.0166,-0.0154,-0.017,-0.017,-0.0168,-0.0156,-0.0158,-0.0145,-0.0134,-0.0118,-0.0086,-0.0051,-0.001,0.0024,0.0046,0.0047,0.0089,0.0053,0.0036,0.009,0.0092,0.0095,0.013,0.0136,0.0055,0.0055,0.0054,0,-0.0171,-0.0189,-0.0172,-0.0191,-0.0196,-0.0166,-0.0186,-0.0168,-0.0146,-0.0133,-0.0122,-0.0051,-0.0016,0.0025,0.0022,0.004,0.0071,0.0045,0.0086,0.0089,0.0093,0.0128,0.0136,0.0052,0.0052,0.0053,0.0053,0,-0.0206,-0.0223,-0.0232,-0.0245,-0.0243,-0.0255,-0.0234,-0.0221,-0.0201,-0.018,-0.014,-0.0086,-0.0043,-0.0027,-0.0002,0.0039,0.0052,0.0072,0.0093,0.0092,0.0129,0.0138,0.0049,0.005,0.005,0.0051,0,0,-0.0217,-0.0251,-0.0257,-0.0279,-0.0276,-0.0281,-0.0273,-0.0257,-0.0248,-0.0208,-0.0189,-0.0128,-0.0093,-0.0064,-0.0021,0.0028,0.0074,0.0055,0.0059,0.0086,0.0181,0.0165,0.0173,0.0102,0.0104,0.0105,0.0192,0,-0.0253,-0.0308,-0.0307,-0.0349,-0.0375,-0.0347,-0.0345,-0.0322,-0.0285,-0.0255,-0.0184,-0.0151,-0.0108,-0.0087,-0.003,0.005,0.0096,0.0048,0.0182,0.0186,0.0169,0.0182,0.0109,0.0199,0.0201,0.0203,0.0204,0,-0.0291,-0.0326,-0.0383,-0.0414,-0.0421,-0.0434,-0.0418,-0.0412,-0.0353,-0.0324,-0.0263,-0.0206,-0.0126,-0.0094,0.0051,0.0018,0.0091,0.0155,0.016,0.017,0.0186,0.0206,0.022,0.0219,0.0218,0.0216,0.0215,0,-0.0322,-0.0374,-0.0424,-0.0438,-0.0464,-0.0475,-0.0475,-0.0435,-0.0431,-0.0364,-0.0343,-0.0237,-0.0186,-0.007,0.0063,0.006,0.022,0.0234,0.0289,0.0288,0.0298,0.0294,0.0332,0.0332,0.0332,0.0331,0.0331,0,-0.0362,-0.0402,-0.0447,-0.0481,-0.053,-0.0524,-0.055,-0.0526,-0.0493,-0.048,-0.0384,-0.0337,-0.0177,-0.0064,0.0055,0.0199,0.0219,0.029,0.0315,0.0273,0.0266,0.0303,0.0299,0.0335,0.0334,0.0333,0.0333,0,-0.039,-0.0422,-0.0487,-0.0536,-0.0556,-0.0588,-0.0618,-0.0625,-0.0583,-0.0558,-0.054,-0.041,-0.0258,-0.0098,0.0094,0.0179,0.0321,0.0364,0.0297,0.0316,0.0354,0.0346,0.0434,0.0435,0.0435,0.0435,0.0435,0,-0.0407,-0.045,-0.0536,-0.0581,-0.0611,-0.0659,-0.0691,-0.0677,-0.0675,-0.0593,-0.0577,-0.0437,-0.0332,-0.007,0.0091,0.0311,0.0338,0.0401,0.0388,0.0351,0.0367,0.0359,0.035,0.0436,0.0436,0.0436,0.0436,0,-0.0447,-0.0482,-0.0537,-0.0636,-0.0692,-0.0746,-0.078,-0.0784,-0.0745,-0.0712,-0.059,-0.0441,-0.0275,-0.0072,0.0093,0.0252,0.0357,0.0404,0.0404,0.0393,0.0354,0.0367,0.0359,0.0437,0.0437,0.0436,0.0436,0,-0.0467,-0.0514,-0.0596,-0.0676,-0.0754,-0.0801,-0.0816,-0.0797,-0.0786,-0.0682,-0.0642,-0.0444,-0.033,-0.0102,0.0057,0.0205,0.024,0.028,0.0288,0.0289,0.0218,0.0146,0.0191,0,0,0,0,0,-0.0474,-0.0542,-0.063,-0.0717,-0.0793,-0.083,-0.0862,-0.0857,-0.0816,-0.0736,-0.0685,-0.052,-0.0263,-0.0148,-0.0002,0.0045,0.0249,0.0218,0.0294,0.0441,0.044,0.0381,0,0,0,0,0,0,-0.0484,-0.0573,-0.0631,-0.0736,-0.0792,-0.0863,-0.0878,-0.085,-0.0795,-0.0728,-0.059,-0.0499,-0.0254,-0.0346,-0.0003,0.0043,0.0107,0.0343,0.0346,0.0442,0.0441,0.044,0.0379,0,0,0,0,0]}]]